Location: Unspecified
(41.1637°N, 24.2901°E)
Time: 13:28:01
(UTC+02:00)

ISS - Pass Details

Date: 10 May 2026
Orbit: 414 x 424 km, 51.6° (Epoch: 12 May)

Event Time Altitude Azimuth Distance (km) Brightness Sun altitude
Rises 20:53:30 0° 249° (WSW) 2,341 0.4 -14.2°
Reaches altitude 10° 20:55:38 10° 256° (WSW) 1,481 -0.5 -14.5°
Maximum altitude 20:58:51 44° 330° (NNW) 581 -2.6 -15.0°
Drops below altitude 10° 21:02:04 10° 44° (NE) 1,490 -1.0 -15.5°
Sets 21:04:14 0° 51° (NE) 2,356 0.0 -15.8°
